Weather History for Ft Lauderdale, FL

Change the Weather History Date:

Wednesday, September 11, 2013

  Actual Average Record
Temperature  
Mean Temperature 82 °F 83 °F  
Max Temperature 88 °F 89 °F 96 °F (1969)
Min Temperature 76 °F 78 °F 67 °F (1933)
Degree Days  
Heating Degree Days 0 0  
Month to date heating degree days 0 0  
Since 1 July heating degree days 0 0  
Cooling Degree Days 17 18  
Month to date cooling degree days 194 204  
Year to date cooling degree days 3241 3370  
Growing Degree Days 32 (Base 50)    
Moisture  
Dew Point 74 °F    
Average Humidity 74    
Maximum Humidity 85    
Minimum Humidity 63    
Precipitation  
Precipitation 0.04 in 0.27 in 3.94 in (1959)
Month to date precipitation 0.54 3.08  
Year to date precipitation 57.58 44.15  
Snow  
Snow 0.00 in - - ()
Month to date snowfall 0.0  
Since 1 July snowfall 0.0  
Since 1 September snowfall 0.0  
Snow Depth 0.00 in    
Sea Level Pressure  
Sea Level Pressure 30.01 in    
Wind  
Wind Speed 9 mph (ESE)    
Max Wind Speed 23 mph    
Max Gust Speed 28 mph    
Visibility 10 miles    
Events Rain    
T = Trace of Precipitation, MM = Missing Value Source: NWS Daily Summary

Daily Weather History Graph

Daily Weather History Graph

Search for Another Location

Airport:

Trip Planner

Search our weather history database for the weather conditions in past years. The results will help you decide how hot, cold, wet, or windy it might be!

Date:

Astronomy

Sep. 11, 2013 Rise Set
Actual Time 7:04 AM EDT 7:28 PM EDT
Civil Twilight 6:41 AM EDT 7:52 PM EDT
Nautical Twilight 6:14 AM EDT 8:19 PM EDT
Astronomical Twilight 5:47 AM EDT 8:46 PM EDT
Moon 12:54 PM EDT (9/11) No Moon Set
Length of Visible Light 13h 10m
Length of Day
12h 24m
Waxing Crescent, 38% of the Moon is Illuminated
Sep 11
Waxing Crescent
Sep 12
First Quarter
Sep 19
Full
Sep 26
Last Quarter
Oct 4
New

Hourly Weather History & Observations

Time (EDT) Temp. Heat Index Dew Point Humidity Pressure Visibility Wind Dir Wind Speed Gust Speed Precip Events Conditions
12:53 AM 81.0 °F 84.9 °F 71.1 °F 72% 30.01 in 10.0 mi East 11.5 mph - N/A   Partly Cloudy
1:53 AM 81.0 °F 86.7 °F 75.0 °F 82% 30.00 in 10.0 mi East 11.5 mph - N/A   Partly Cloudy
2:53 AM 81.0 °F 86.7 °F 75.0 °F 82% 29.98 in 10.0 mi East 9.2 mph - N/A   Mostly Cloudy
3:04 AM 80.6 °F 86.2 °F 75.2 °F 84% 29.98 in 10.0 mi East 8.1 mph - N/A   Scattered Clouds
3:53 AM 81.0 °F 86.7 °F 75.0 °F 82% 29.97 in 10.0 mi East 6.9 mph - N/A   Scattered Clouds
4:53 AM 81.0 °F 86.2 °F 73.9 °F 79% 29.97 in 10.0 mi ESE 9.2 mph - N/A   Scattered Clouds
5:53 AM 82.0 °F 87.4 °F 73.0 °F 74% 29.99 in 10.0 mi East 10.4 mph - N/A   Scattered Clouds
6:53 AM 82.0 °F 87.9 °F 73.9 °F 76% 30.00 in 10.0 mi ESE 9.2 mph - N/A   Partly Cloudy
7:53 AM 82.0 °F 87.9 °F 73.9 °F 76% 30.01 in 10.0 mi ESE 10.4 mph - N/A   Partly Cloudy
8:53 AM 84.0 °F 91.2 °F 73.9 °F 72% 30.03 in 10.0 mi ESE 12.7 mph - N/A   Partly Cloudy
9:53 AM 87.1 °F 95.4 °F 73.9 °F 65% 30.03 in 10.0 mi SE 11.5 mph - N/A   Partly Cloudy
10:53 AM 86.0 °F 95.1 °F 75.0 °F 70% 30.03 in 10.0 mi East 10.4 mph - N/A   Scattered Clouds
11:53 AM 86.0 °F 93.8 °F 73.9 °F 67% 30.03 in 10.0 mi East 13.8 mph - N/A   Mostly Cloudy
12:05 PM 87.8 °F 97.6 °F 75.2 °F 66% 30.04 in 10.0 mi East 15.0 mph 19.6 mph N/A   Mostly Cloudy
12:32 PM 80.6 °F 84.6 °F 71.6 °F 74% 30.04 in 10.0 mi NE 18.4 mph 25.3 mph 0.01 in Rain Rain
12:53 PM 80.1 °F 86.7 °F 79.0 °F 96% 30.04 in 10.0 mi NNE 9.2 mph - 0.03 in Rain Light Rain
1:53 PM 84.0 °F 91.9 °F 75.0 °F 74% 30.01 in 10.0 mi East 13.8 mph - 0.00 in   Mostly Cloudy
2:53 PM 82.0 °F 87.9 °F 73.9 °F 76% 30.01 in 10.0 mi ENE 11.5 mph - N/A   Scattered Clouds
3:53 PM 82.0 °F 87.4 °F 73.0 °F 74% 30.00 in 10.0 mi ESE 10.4 mph - N/A   Mostly Cloudy
4:53 PM 81.0 °F 85.8 °F 73.0 °F 77% 29.99 in 10.0 mi SSE 5.8 mph - N/A   Scattered Clouds
5:53 PM 81.0 °F 86.2 °F 73.9 °F 79% 29.99 in 10.0 mi Calm Calm - N/A   Scattered Clouds
6:53 PM 81.0 °F 86.2 °F 73.9 °F 79% 29.99 in 10.0 mi East 9.2 mph - N/A   Scattered Clouds
7:53 PM 81.0 °F 86.2 °F 73.9 °F 79% 29.99 in 10.0 mi ENE 8.1 mph - N/A   Scattered Clouds
8:53 PM 80.1 °F 85.1 °F 75.0 °F 85% 30.00 in 10.0 mi East 6.9 mph - 0.01 in   Scattered Clouds
9:53 PM 80.1 °F 85.1 °F 75.0 °F 85% 30.01 in 10.0 mi ENE 4.6 mph - N/A   Scattered Clouds
10:53 PM 81.0 °F 86.7 °F 75.0 °F 82% 30.03 in 10.0 mi East 6.9 mph - N/A   Scattered Clouds
11:17 PM 80.6 °F 86.2 °F 75.2 °F 84% 30.02 in 8.0 mi ESE 17.3 mph 27.6 mph N/A   Mostly Cloudy
11:24 PM 78.8 °F - 73.4 °F 83% 30.02 in 5.0 mi South 15.0 mph 27.6 mph 0.00 in Rain Rain
11:33 PM 77.0 °F - 73.4 °F 89% 30.02 in 7.0 mi South 9.2 mph - 0.00 in Rain Light Rain
11:53 PM 77.0 °F - 73.9 °F 90% 30.02 in 8.0 mi SSW 4.6 mph - N/A Rain Light Rain